Starlink 35536

operational
NORAD ID: 66261 Int'l Des: 2025-245 Owner: SPXS Country: US Constellation: starlink
LEOCIRCULAR

关于 Starlink 35536

正在加载描述...

实时位置

正在加载3D地球...

即将过境

高度历史

Altitude vs Time

uPlot chart will show altitude changes over time

两行轨道根数

1 66261U 25245AD 25349.90237881 .00044249 00000-0 11084-2 0 9999
2 66261 53.1616 314.1142 0001996 86.1102 274.0131 15.39658298 8411
Epoch: Dec 15, 2025 • Age: 23 hours

当前状态

高度 448.1 km
速度 7.64 km/s
星下点 -1.86°S, 101.51°E
发射日期 Oct 29, 2025
运行时间 0.1 years
类型 internet

技术详情

分类 Payload
质量 575.00 kg
干质量 530.00 kg
总质量 575.00 kg
长度 0.30 m
直径 4.10 m
跨度 29.00 m
形状 Box + pan
制造商 SPXS
平台类型 Starlink V2MO
阶段状态 In Orbit
所有者/国家 SPXS/US

大型星座

Loading constellations...